Location: Bratislava
(48.1517°N, 17.1093°E)
Time: 12:39:09
(UTC+02:00)

Tiangong - Visible Passes

Search period start: 20 April 2024 00:00
Search period end: 30 April 2024 00:00
Orbit: 371 x 379 km, 41.5° (Epoch: 19 April)

Date Brightness Start Highest point End Pass type
(mag) Time Alt. Az. Time Alt. Az. Time Alt. Az.
20 Apr -0.7 21:28:13 10° SW 21:30:24 23° S 21:30:24 23° S visible
21 Apr -0.6 20:25:41 10° SW 20:28:06 21° S 20:30:30 10° ESE visible
21 Apr 0.1 22:01:44 10° WSW 22:02:40 15° SW 22:02:40 15° SW visible
22 Apr -0.7 20:58:54 10° WSW 21:01:27 23° S 21:02:45 18° SE visible
23 Apr -0.4 21:32:25 10° WSW 21:34:42 19° SSW 21:34:43 19° SSW visible
24 Apr -0.6 20:29:20 10° WSW 20:31:49 22° S 20:34:18 10° SE visible
25 Apr -0.1 21:02:54 10° WSW 21:04:53 16° SSW 21:06:21 12° SSE visible
27 Apr 0.3 20:33:18 10° SW 20:34:44 13° SSW 20:36:10 10° S visible
